Hourly Weather Abartzuza

Today, 21 October, Wednesday

Time Temperature Precipitation Wind Pressure Humidity
00:00 +14°C° 0.1 mm 13 mps 699 mmHg 80%
01:00 +13°C° 1.7 mm 12 mps 700 mmHg 81%
02:00 +13°C° 1.7 mm 10 mps 700 mmHg 83%
03:00 +13°C° 1.7 mm 9 mps 700 mmHg 85%
04:00 +13°C° 0.1 mm 9 mps 701 mmHg 86%
05:00 +13°C° 0.1 mm 8 mps 701 mmHg 87%
06:00 +12°C° 0.1 mm 7 mps 702 mmHg 88%
07:00 +13°C° 0 mm 8 mps 703 mmHg 82%
08:00 +15°C° 0 mm 8 mps 703 mmHg 77%
09:00 +16°C° 0 mm 8 mps 704 mmHg 71%
10:00 +17°C° 0 mm 8 mps 705 mmHg 65%
11:00 +18°C° 0 mm 8 mps 705 mmHg 58%
12:00 +20°C° 0 mm 8 mps 705 mmHg 51%
13:00 +20°C° 0 mm 8 mps 705 mmHg 51%
14:00 +20°C° 0 mm 8 mps 705 mmHg 50%
15:00 +20°C° 0 mm 8 mps 705 mmHg 49%
16:00 +18°C° 0 mm 7 mps 705 mmHg 52%
17:00 +17°C° 0 mm 6 mps 706 mmHg 54%
18:00 +17°C° 0 mm 5 mps 706 mmHg 57%
19:00 +16°C° 0 mm 5 mps 706 mmHg 60%
20:00 +17°C° 0 mm 4 mps 706 mmHg 62%
21:00 +16°C° 0 mm 3 mps 707 mmHg 65%
22:00 +16°C° 0.1 mm 3 mps 707 mmHg 67%
23:00 +16°C° 0.1 mm 3 mps 706 mmHg 70%

Tomorrow, 22 October, Thursday

Time Temperature Precipitation Wind Pressure Humidity
00:00 +14°C° 0.1 mm 3 mps 706 mmHg 73%
01:00 +14°C° 0 mm 3 mps 706 mmHg 76%
02:00 +13°C° 0 mm 3 mps 706 mmHg 79%
03:00 +13°C° 0 mm 3 mps 706 mmHg 82%
04:00 +13°C° 0 mm 3 mps 707 mmHg 83%
05:00 +12°C° 0 mm 3 mps 707 mmHg 84%
06:00 +12°C° 0 mm 3 mps 707 mmHg 86%
07:00 +13°C° 0 mm 3 mps 707 mmHg 80%
08:00 +15°C° 0 mm 4 mps 708 mmHg 75%
09:00 +17°C° 0 mm 4 mps 709 mmHg 69%
10:00 +17°C° 0.1 mm 5 mps 708 mmHg 64%
11:00 +19°C° 0.1 mm 5 mps 708 mmHg 58%
12:00 +21°C° 0.1 mm 6 mps 708 mmHg 52%
13:00 +21°C° 0.3 mm 6 mps 708 mmHg 53%
14:00 +21°C° 0.3 mm 6 mps 708 mmHg 53%
15:00 +21°C° 0.3 mm 5 mps 708 mmHg 54%
16:00 +19°C° 0.5 mm 5 mps 708 mmHg 60%
17:00 +18°C° 0.5 mm 4 mps 708 mmHg 66%
18:00 +16°C° 0.5 mm 3 mps 708 mmHg 71%
19:00 +16°C° 0.1 mm 3 mps 708 mmHg 74%
20:00 +15°C° 0.1 mm 2 mps 708 mmHg 76%
21:00 +15°C° 0.1 mm 1 mps 708 mmHg 79%
22:00 +15°C° 0.1 mm 1 mps 709 mmHg 80%
23:00 +14°C° 0.1 mm 2 mps 709 mmHg 82%

Day after tomorrow, 23 October, Friday

Time Temperature Precipitation Wind Pressure Humidity
00:00 +14°C° 0.1 mm 2 mps 709 mmHg 83%
01:00 +13°C° 0.1 mm 2 mps 709 mmHg 82%
02:00 +13°C° 0.1 mm 1 mps 709 mmHg 81%
03:00 +12°C° 0.1 mm 1 mps 710 mmHg 79%
04:00 +12°C° 0 mm 1 mps 710 mmHg 80%
05:00 +11°C° 0 mm 1 mps 710 mmHg 81%
06:00 +10°C° 0 mm 1 mps 710 mmHg 82%
07:00 +12°C° 0 mm 2 mps 711 mmHg 77%
08:00 +13°C° 0 mm 2 mps 712 mmHg 72%
09:00 +14°C° 0 mm 2 mps 713 mmHg 67%
10:00 +14°C° 0 mm 3 mps 713 mmHg 63%
11:00 +16°C° 0 mm 3 mps 713 mmHg 59%
12:00 +15°C° 0 mm 4 mps 713 mmHg 55%
13:00 +15°C° 0 mm 4 mps 714 mmHg 56%
14:00 +15°C° 0 mm 4 mps 714 mmHg 56%
15:00 +15°C° 0 mm 4 mps 714 mmHg 57%
16:00 +14°C° 0.1 mm 3 mps 714 mmHg 65%
17:00 +13°C° 0.1 mm 2 mps 714 mmHg 73%
18:00 +12°C° 0.1 mm 2 mps 714 mmHg 80%
19:00 +10°C° 0 mm 2 mps 715 mmHg 84%
20:00 +11°C° 0 mm 1 mps 715 mmHg 87%
21:00 +10°C° 0 mm 1 mps 716 mmHg 90%
22:00 +10°C° 0 mm 1 mps 716 mmHg 91%
23:00 +10°C° 0 mm 1 mps 716 mmHg 91%

24 October, Saturday

Time Temperature Precipitation Wind Pressure Humidity
00:00 +9°C° 0 mm 1 mps 716 mmHg 92%
01:00 +9°C° 0 mm 1 mps 715 mmHg 91%
02:00 +9°C° 0 mm 1 mps 715 mmHg 91%
03:00 +9°C° 0 mm 1 mps 715 mmHg 90%
04:00 +8°C° 0 mm 1 mps 715 mmHg 89%
05:00 +8°C° 0 mm 1 mps 715 mmHg 89%
06:00 +8°C° 0 mm 1 mps 715 mmHg 88%
07:00 +10°C° 0 mm 1 mps 715 mmHg 81%
08:00 +11°C° 0 mm 1 mps 715 mmHg 75%
09:00 +13°C° 0 mm 1 mps 715 mmHg 69%
10:00 +14°C° 0 mm 1 mps 715 mmHg 63%
11:00 +15°C° 0 mm 2 mps 714 mmHg 56%
12:00 +17°C° 0 mm 3 mps 714 mmHg 50%
13:00 +17°C° 0 mm 3 mps 714 mmHg 49%
14:00 +17°C° 0 mm 3 mps 713 mmHg 48%
15:00 +17°C° 0 mm 3 mps 713 mmHg 47%
16:00 +16°C° 0 mm 2 mps 712 mmHg 53%
17:00 +14°C° 0 mm 2 mps 712 mmHg 58%
18:00 +13°C° 0 mm 2 mps 711 mmHg 64%
19:00 +12°C° 0 mm 2 mps 711 mmHg 65%
20:00 +12°C° 0 mm 2 mps 711 mmHg 66%
21:00 +10°C° 0 mm 2 mps 711 mmHg 67%
22:00 +10°C° 0 mm 2 mps 710 mmHg 69%
23:00 +9°C° 0 mm 2 mps 710 mmHg 70%

25 October, Sunday

Time Temperature Precipitation Wind Pressure Humidity
00:00 +9°C° 0 mm 2 mps 710 mmHg 72%
01:00 +9°C° 0 mm 2 mps 709 mmHg 74%
02:00 +8°C° 0 mm 2 mps 709 mmHg 76%
03:00 +8°C° 0 mm 2 mps 708 mmHg 78%
04:00 +8°C° 0 mm 2 mps 708 mmHg 78%
05:00 +8°C° 0 mm 2 mps 708 mmHg 79%
06:00 +8°C° 0 mm 2 mps 708 mmHg 79%
07:00 +9°C° 0 mm 2 mps 708 mmHg 75%
08:00 +10°C° 0 mm 2 mps 708 mmHg 71%
09:00 +12°C° 0 mm 2 mps 708 mmHg 66%
10:00 +13°C° 0 mm 2 mps 708 mmHg 64%
11:00 +14°C° 0 mm 2 mps 708 mmHg 61%
12:00 +15°C° 0 mm 2 mps 708 mmHg 58%
13:00 +14°C° 0.2 mm 2 mps 708 mmHg 65%
14:00 +13°C° 0.2 mm 2 mps 708 mmHg 71%
15:00 +12°C° 0.2 mm 2 mps 708 mmHg 77%
16:00 +10°C° 0.6 mm 2 mps 708 mmHg 80%
17:00 +9°C° 0.6 mm 3 mps 709 mmHg 82%
18:00 +8°C° 0.6 mm 3 mps 709 mmHg 85%
19:00 +7°C° 0 mm 3 mps 709 mmHg 86%
20:00 +7°C° 0 mm 2 mps 710 mmHg 86%
21:00 +7°C° 0 mm 1 mps 710 mmHg 87%
22:00 +7°C° 0 mm 1 mps 710 mmHg 88%
23:00 +6°C° 0 mm 1 mps 710 mmHg 89%

26 October, Monday

Time Temperature Precipitation Wind Pressure Humidity
00:00 +6°C° 0 mm 1 mps 710 mmHg 90%
01:00 +6°C° 0 mm 1 mps 710 mmHg 90%
02:00 +6°C° 0 mm 1 mps 710 mmHg 90%
03:00 +5°C° 0 mm 2 mps 710 mmHg 90%
04:00 +4°C° 0 mm 2 mps 711 mmHg 90%
05:00 +4°C° 0 mm 2 mps 711 mmHg 90%
06:00 +4°C° 0 mm 2 mps 711 mmHg 90%
07:00 +5°C° 0.3 mm 2 mps 712 mmHg 86%
08:00 +5°C° 0.3 mm 3 mps 712 mmHg 81%
09:00 +7°C° 0.3 mm 4 mps 713 mmHg 77%
10:00 +7°C° 0.1 mm 4 mps 713 mmHg 77%
11:00 +7°C° 0.1 mm 4 mps 713 mmHg 76%
12:00 +8°C° 0.1 mm 4 mps 713 mmHg 76%
13:00 +8°C° 0 mm 4 mps 713 mmHg 76%
14:00 +8°C° 0 mm 4 mps 713 mmHg 77%
15:00 +8°C° 0 mm 4 mps 713 mmHg 77%
16:00 +8°C° 0.1 mm 3 mps 713 mmHg 80%
17:00 +8°C° 0.1 mm 3 mps 713 mmHg 83%
18:00 +7°C° 0.1 mm 2 mps 713 mmHg 86%
19:00 +7°C° 0.1 mm 2 mps 714 mmHg 87%
20:00 +7°C° 0.1 mm 2 mps 714 mmHg 88%
21:00 +7°C° 0.1 mm 2 mps 714 mmHg 89%
22:00 +7°C° 0.1 mm 2 mps 714 mmHg 90%
23:00 +7°C° 0.1 mm 2 mps 714 mmHg 92%

27 October, Tuesday

Time Temperature Precipitation Wind Pressure Humidity
00:00 +6°C° 0.1 mm 2 mps 714 mmHg 93%
01:00 +6°C° 0.1 mm 2 mps 713 mmHg 93%
02:00 +6°C° 0.1 mm 2 mps 713 mmHg 94%
03:00 +6°C° 0.1 mm 2 mps 713 mmHg 94%
04:00 +6°C° 0 mm 2 mps 713 mmHg 94%
05:00 +6°C° 0 mm 2 mps 713 mmHg 93%
06:00 +6°C° 0 mm 2 mps 713 mmHg 93%
07:00 +7°C° 0 mm 2 mps 713 mmHg 89%
08:00 +8°C° 0 mm 2 mps 713 mmHg 85%
09:00 +9°C° 0 mm 2 mps 713 mmHg 81%
10:00 +10°C° 0 mm 2 mps 713 mmHg 75%
11:00 +11°C° 0 mm 3 mps 713 mmHg 70%
12:00 +12°C° 0 mm 3 mps 713 mmHg 64%
13:00 +13°C° 0 mm 3 mps 713 mmHg 64%
14:00 +13°C° 0 mm 3 mps 713 mmHg 63%
15:00 +14°C° 0 mm 2 mps 713 mmHg 63%
16:00 +13°C° 0 mm 2 mps 713 mmHg 68%
17:00 +12°C° 0 mm 2 mps 713 mmHg 72%
18:00 +11°C° 0 mm 1 mps 713 mmHg 77%
19:00 +11°C° 0 mm 1 mps 713 mmHg 77%
20:00 +11°C° 0 mm 1 mps 713 mmHg 76%
21:00 +10°C° 0 mm 1 mps 713 mmHg 76%
22:00 +10°C° 0 mm 1 mps 713 mmHg 76%
23:00 +10°C° 0 mm 1 mps 713 mmHg 76%
Show more